RH
7 7 10 14 21 25 28 26 24 33 40 47 43 32 25 21 17 13 24 31 31 36 32 30 30 30 41 54 57 57 59 63 68 56 57 76 75 74 69 60 54 48 63 81 88 92 84 80 88 86 85 91 79 71 76 77 74 69 66 63 69 81 86 88 89 83 81 85 90 86 87 87 73 71 81 90 91 82 83 89 88 86 84 82 81 79 80 86 89 93 87 80 79 63 43 36 39
6 8 11 14 17 17 19 16 20 27 27 32 26 21 19 14 14 11 21 29 30 33 30 33 35 40 44 48 47 46 54 52 53 62 76 84 80 80 66 56 49 41 54 72 85 88 82 83 83 79 83 85 73 69 72 73 70 67 65 63 69 78 84 89 90 87 87 89 87 87 92 90 79 73 73 82 83 73 84 91 86 87 83 82 83 81 82 86 89 91 85 81 77 59 43 40 46
6 9 11 13 13 15 20 18 21 27 25 27 22 17 16 14 14 13 24 30 31 33 33 38 40 43 42 43 42 49 68 54 47 67 85 83 82 90 73 58 47 38 48 60 75 82 82 79 74 81 88 81 70 70 69 68 69 67 65 64 70 78 86 89 91 90 88 88 87 89 93 92 83 77 73 76 79 72 81 90 87 85 82 81 83 83 82 83 88 90 87 82 67 50 45 48 55
7 10 13 13 14 19 24 21 21 25 24 26 22 17 16 15 13 15 26 33 33 35 36 37 38 36 34 42 45 57 72 52 47 68 81 77 78 90 78 63 54 49 58 60 66 76 80 73 72 87 90 77 73 77 72 70 70 68 67 66 70 78 88 90 91 89 87 88 88 89 90 90 86 81 78 74 83 85 81 86 87 81 78 78 81 82 83 85 89 92 87 74 57 47 48 52 56
8 12 17 15 16 21 21 22 23 25 23 22 22 17 15 15 13 12 19 31 35 34 33 33 36 33 30 37 45 60 65 48 49 62 72 77 79 83 74 66 59 59 68 68 66 70 75 74 76 84 83 77 77 82 79 76 73 69 69 68 70 78 85 89 90 89 89 88 87 89 88 88 87 84 79 69 74 87 87 86 85 79 78 79 81 83 85 88 90 92 82 67 56 48 47 49 52
8 14 21 17 16 18 21 24 24 25 20 18 20 17 16 14 14 13 12 24 31 31 30 30 32 34 37 35 38 50 52 47 48 55 69 84 84 74 68 65 61 66 72 70 67 66 73 76 75 75 78 78 77 83 82 79 76 74 74 72 71 76 82 85 85 88 89 87 88 87 85 86 86 82 72 58 56 75 88 88 87 81 80 82 84 87 88 91 91 87 74 63 56 49 46 46 48
9 14 20 19 16 17 23 26 25 25 20 17 18 16 16 14 14 14 11 16 20 23 26 30 31 37 44 37 37 40 41 42 45 58 69 81 84 71 65 62 63 74 76 71 66 66 73 71 68 72 77 80 83 85 80 77 80 83 84 76 73 76 80 82 81 86 90 87 88 85 85 85 81 74 62 53 52 71 88 88 88 84 82 85 86 89 91 93 88 76 66 61 57 51 48 45 47
12 15 20 21 20 20 25 26 23 24 20 17 17 15 15 15 14 14 14 13 12 18 27 31 31 43 49 44 48 45 42 44 47 62 69 76 82 71 67 63 67 82 81 73 69 74 77 66 64 72 77 83 89 85 76 75 83 91 89 79 77 80 80 82 80 84 89 88 88 87 87 83 74 64 54 51 50 67 89 90 87 86 86 87 89 90 89 87 77 67 64 60 57 53 48 46 47
14 14 18 20 22 23 25 25 23 23 20 17 16 16 16 15 14 14 14 14 12 19 30 32 31 44 53 56 59 51 52 56 57 68 73 78 76 70 73 65 62 78 85 76 76 82 77 66 68 77 81 85 89 84 75 75 86 93 91 86 84 85 85 86 84 82 84 88 90 88 83 78 71 61 50 49 51 60 84 93 87 87 89 90 93 90 81 75 69 66 63 58 55 52 48 45 46
16 15 17 19 22 24 25 25 23 22 18 17 16 15 16 13 13 14 14 15 11 17 31 35 38 48 55 63 63 55 63 66 67 78 78 77 74 76 81 66 49 61 79 80 80 79 75 74 75 82 85 84 87 83 76 80 90 92 91 91 90 89 91 92 89 82 79 86 91 86 78 73 67 59 50 48 53 55 69 90 91 89 91 91 92 85 75 70 68 66 61 57 53 50 48 46 47
20 18 17 19 23 24 24 24 23 21 17 16 15 13 14 12 14 14 14 15 10 20 40 43 47 55 59 66 64 57 65 69 71 78 77 76 80 84 80 69 56 55 67 76 81 79 80 84 83 85 86 84 83 79 79 86 91 91 91 92 92 93 93 94 91 82 78 83 86 81 76 69 52 46 45 43 52 52 58 84 93 92 92 90 90 81 72 69 66 64 62 57 52 50 48 46 47
23 20 16 20 24 23 22 22 21 20 18 16 15 13 12 12 14 14 14 15 11 18 35 43 47 54 63 70 66 56 59 66 69 72 73 77 83 84 76 72 68 60 61 66 76 82 84 86 87 86 84 85 83 79 82 89 90 90 93 92 92 93 91 91 90 82 78 78 78 77 71 56 36 30 34 38 50 51 58 82 90 91 92 91 88 78 72 69 66 64 61 57 53 50 46 46 45
22 22 18 22 24 20 20 20 19 21 20 16 15 12 12 12 12 13 13 13 13 11 20 37 44 50 64 70 65 57 56 58 62 67 71 78 83 81 75 74 73 65 62 62 70 82 86 87 89 86 84 85 84 82 86 88 87 90 95 93 92 92 91 91 88 80 78 78 72 64 52 37 26 24 25 33 48 50 55 75 87 90 90 92 86 75 72 69 66 64 61 58 54 50 47 45 43
18 19 19 24 24 19 18 18 18 21 20 15 14 12 11 12 12 12 12 14 13 12 23 37 41 52 66 70 69 63 57 54 59 68 73 81 84 82 79 76 76 70 66 64 66 77 86 89 90 87 86 88 89 87 88 87 86 90 93 92 90 90 92 91 85 79 78 74 61 44 32 27 24 22 21 28 45 50 49 58 74 85 90 92 85 74 72 69 67 64 60 58 54 51 49 45 44
16 17 18 23 22 18 18 17 17 18 17 15 13 12 11 11 11 11 12 13 10 19 35 40 39 53 66 69 73 65 54 54 62 72 79 85 86 83 81 78 77 73 68 63 63 72 85 92 91 88 88 92 92 89 89 89 88 90 91 91 89 87 88 85 81 80 75 61 43 28 22 23 21 18 19 28 43 49 48 48 55 71 81 84 79 73 71 69 66 64 61 58 55 54 53 50 49
16 15 17 21 21 20 19 16 17 17 16 14 12 12 12 11 11 10 12 10 13 28 37 38 36 45 57 60 62 57 51 57 68 77 84 89 89 88 87 84 83 79 73 66 63 72 85 93 90 87 89 92 91 90 91 91 90 92 92 92 89 84 80 80 81 77 63 44 29 20 16 16 15 14 18 30 43 48 49 48 46 56 68 70 70 72 70 69 67 64 61 59 58 58 58 55 53
15 15 19 21 20 20 18 16 17 16 14 13 11 11 12 11 10 10 11 8 13 27 31 34 38 42 49 51 52 53 52 63 74 81 88 92 92 95 94 93 94 92 89 79 71 79 89 90 87 88 89 90 92 92 92 92 91 91 94 95 91 82 75 80 80 67 50 33 24 18 12 11 11 14 21 34 44 45 47 49 47 49 60 67 68 69 67 66 66 64 62 61 61 60 59 57 53
15 20 22 21 20 18 16 16 14 13 12 12 12 10 11 11 10 10 9 10 10 20 36 42 47 51 48 49 51 52 59 71 79 83 90 92 91 94 96 96 98 97 98 93 87 89 92 89 85 88 88 88 91 92 92 93 91 92 96 96 89 78 75 80 72 57 41 30 37 39 32 28 23 20 22 31 40 43 42 45 49 49 52 59 63 65 64 64 64 62 62 61 59 58 56 54 50
17 21 22 20 18 15 14 14 13 12 12 12 11 10 12 11 10 11 9 12 8 18 49 56 56 62 54 52 52 55 67 75 78 83 86 88 88 90 92 95 95 96 97 95 95 95 91 87 85 86 88 89 91 92 92 93 93 92 95 91 81 73 75 75 62 52 37 31 57 71 67 64 56 48 38 29 31 39 43 43 48 51 51 51 51 53 53 55 58 57 57 56 53 50 46 44 41
16 19 21 19 15 14 13 12 12 12 12 11 11 10 11 11 10 12 10 12 9 14 49 64 62 66 60 55 54 59 70 74 76 79 82 83 84 86 88 91 92 93 92 87 92 96 90 85 85 86 89 91 92 93 92 92 92 89 92 89 76 72 74 68 56 50 36 26 53 78 81 82 80 80 73 54 37 32 37 40 44 49 51 51 49 46 44 44 44 43 44 42 39 37 38 44 46
15 17 18 17 14 14 13 12 12 11 11 11 11 10 10 11 10 11 11 13 12 9 32 58 63 62 61 58 57 61 68 72 75 76 78 80 80 83 83 86 86 84 82 81 88 92 87 82 84 86 90 92 94 95 93 92 90 87 93 87 74 72 70 64 56 47 35 29 51 78 84 84 86 89 90 84 61 36 29 32 35 40 42 44 45 44 43 41 39 36 37 38 37 41 49 57 57
17 16 15 14 14 15 12 11 12 11 11 10 11 11 9 10 9 11 12 12 14 9 15 40 57 58 57 58 58 62 67 72 75 75 76 77 78 80 81 82 81 80 80 82 85 82 81 80 80 83 89 92 93 94 94 92 89 87 91 83 73 71 66 61 54 45 47 54 67 83 85 85 89 89 90 92 77 51 42 38 33 31 32 34 36 44 50 50 48 44 47 52 50 53 61 63 60
20 17 14 13 13 14 13 11 11 11 11 11 11 10 9 10 10 11 12 11 13 11 9 20 45 56 53 55 61 64 69 73 75 75 74 74 76 77 79 79 79 80 79 81 81 77 79 82 79 80 85 90 91 91 91 89 85 82 82 77 71 69 63 57 50 52 65 72 76 83 87 86 88 90 91 89 80 68 64 60 51 39 36 44 50 63 71 67 64 58 60 63 58 59 64 63 58
26 23 16 12 11 11 12 11 11 11 11 11 10 10 10 10 11 10 11 12 9 11 11 8 30 53 53 55 63 67 69 72 74 72 71 71 72 73 75 76 77 79 78 79 81 77 78 81 81 81 81 84 89 88 85 83 78 78 78 73 69 65 59 51 53 66 73 75 78 82 86 88 88 90 88 82 79 80 79 75 72 62 58 67 69 74 76 73 72 67 67 65 60 63 65 65 62
28 29 22 15 12 10 10 11 11 12 11 10 10 10 11 10 9 10 10 12 10 11 10 8 31 56 57 59 65 69 71 73 75 73 70 68 69 71 72 73 75 77 77 78 82 81 76 78 84 85 82 81 85 84 83 79 75 77 76 72 69 63 58 54 62 74 74 75 80 80 84 87 86 86 85 80 79 82 83 80 80 76 75 77 75 75 74 74 73 68 69 68 64 66 68 68 68
25 26 24 19 15 11 10 10 10 12 10 11 11 10 10 9 9 10 9 11 11 10 12 24 50 65 62 64 68 71 74 76 78 75 70 67 67 70 72 73 74 75 76 77 81 81 75 78 87 87 81 80 83 84 85 79 74 77 75 72 68 62 63 66 72 76 75 78 80 79 82 82 81 81 82 82 80 82 81 80 81 80 79 77 76 77 74 73 74 70 69 68 66 68 69 68 70
22 22 21 20 18 13 11 10 9 10 10 11 11 12 10 9 10 11 12 16 11 15 35 50 61 66 65 69 71 73 76 76 77 75 72 71 69 71 72 73 74 74 74 76 79 78 73 78 86 87 82 81 83 87 88 78 74 77 74 73 68 62 69 73 76 78 77 81 81 79 80 78 79 80 82 82 81 82 81 80 82 80 77 76 76 76 75 73 74 74 68 65 67 69 69 68 70
20 21 22 20 18 16 13 11 10 9 10 10 10 12 11 9 12 9 12 21 19 31 60 66 62 65 68 73 74 75 75 75 75 74 75 75 70 70 72 72 73 74 73 75 75 73 73 77 83 86 84 82 82 86 88 78 73 77 78 78 69 64 74 76 77 79 76 78 78 76 79 80 81 81 82 82 81 82 80 80 82 79 76 76 76 77 76 73 72 72 67 66 68 69 70 68 69
20 21 24 23 19 18 16 13 11 10 10 10 10 13 13 11 12 10 9 15 27 49 71 70 66 68 70 74 76 75 76 75 75 73 71 72 68 67 70 69 70 73 73 73 71 70 72 75 81 85 83 81 81 83 85 78 73 79 84 81 69 67 77 76 75 76 73 75 74 74 79 82 82 83 82 80 81 82 80 80 81 79 78 77 77 78 75 72 71 69 68 69 70 69 68 67 67
22 22 25 26 24 21 16 13 12 10 9 8 11 15 15 12 10 12 10 14 35 58 68 67 70 72 73 77 77 78 79 77 76 73 69 70 68 66 67 68 69 72 73 73 72 69 69 71 78 82 81 81 80 80 82 79 75 80 85 81 73 72 77 76 73 73 72 74 73 74 79 81 81 83 82 79 80 81 79 81 82 80 79 78 79 79 75 73 70 67 69 70 68 67 65 63 65
26 26 28 29 30 25 15 14 13 12 10 7 11 16 15 12 11 12 11 16 37 55 62 65 72 76 77 78 79 82 82 78 75 72 70 71 69 66 67 69 69 70 72 74 73 70 68 69 75 79 79 80 80 79 79 79 77 81 83 81 79 76 75 74 71 71 73 75 75 77 80 79 79 82 81 79 79 81 80 80 83 82 80 81 81 79 75 72 68 65 68 67 64 62 61 60 62
28 33 37 31 30 26 16 15 14 12 11 7 10 15 14 12 11 13 11 13 27 45 57 64 72 78 79 79 80 82 83 80 75 73 73 73 71 68 68 70 70 70 72 73 73 72 70 70 72 76 77 78 79 77 75 77 79 82 81 78 79 75 72 71 69 68 71 73 76 79 80 79 80 82 80 79 78 79 80 81 84 84 82 81 78 74 72 69 66 65 65 64 61 59 59 59 59
33 37 43 37 32 28 19 15 13 12 12 9 10 12 13 12 10 11 12 12 18 29 45 59 72 80 79 80 79 80 85 84 80 77 76 74 71 68 68 70 71 70 71 71 72 73 71 71 71 72 75 77 76 74 73 76 80 81 78 75 75 73 70 70 68 68 69 71 75 77 78 81 81 80 80 80 78 77 78 80 83 83 80 77 73 69 68 67 65 66 66 63 60 59 59 59 58
40 39 43 39 35 32 24 17 13 12 13 11 10 9 10 11 11 11 10 13 16 20 36 53 67 77 78 79 78 80 84 85 83 78 77 75 70 68 70 70 70 70 70 69 69 70 69 70 71 69 71 74 74 73 73 76 78 77 75 73 72 70 70 70 68 70 72 72 74 75 77 82 84 81 82 81 79 76 76 77 80 80 77 74 72 69 67 67 65 65 67 64 60 60 59 59 58
40 40 45 43 37 35 30 22 14 12 14 12 11 10 9 9 10 13 10 13 15 17 37 53 61 72 76 78 79 80 84 84 80 76 77 76 70 70 71 70 71 71 70 69 68 68 68 70 70 69 69 71 73 72 73 74 75 75 74 73 71 70 70 70 69 73 76 75 73 74 78 84 85 84 84 82 79 78 77 77 77 77 76 74 70 69 68 67 65 64 67 66 62 60 60 59 58
35 34 37 40 38 35 30 23 15 12 14 13 13 11 10 9 9 13 13 15 13 14 39 56 60 70 76 79 82 81 84 82 76 74 77 75 72 72 72 71 72 71 71 71 69 68 70 71 70 70 69 70 71 71 72 74 75 75 74 75 74 72 71 72 75 77 79 78 75 77 82 84 84 85 85 80 77 78 78 78 77 75 75 73 68 67 69 68 66 64 65 67 64 61 60 59 58
30 30 32 31 32 32 27 23 17 12 14 14 13 11 10 10 8 11 13 16 13 12 36 57 59 68 76 80 84 84 84 80 73 75 77 75 74 73 72 73 73 74 73 71 71 71 71 72 71 70 70 70 71 71 74 75 76 77 77 77 75 73 74 77 81 82 81 80 77 79 84 83 83 85 85 81 77 76 76 77 77 74 72 71 69 68 67 67 66 64 65 67 65 62 60 58 58
27 29 30 29 29 28 23 21 17 13 15 15 13 12 11 10 9 10 10 16 17 11 29 53 56 61 73 78 83 85 83 80 78 79 80 77 76 76 75 75 75 75 76 73 72 72 71 71 71 70 70 71 72 72 75 76 75 75 76 77 75 76 77 79 82 83 81 80 78 81 84 83 83 84 83 81 79 77 76 77 75 72 70 71 73 72 69 67 65 63 63 66 66 63 60 58 56
28 28 29 30 27 25 22 18 16 14 16 18 16 14 12 10 9 11 10 11 16 14 23 43 50 54 66 76 82 86 85 85 84 84 84 79 78 79 78 77 76 75 77 75 72 71 71 72 71 69 69 72 73 73 75 76 74 73 74 74 75 78 80 79 79 79 78 79 81 84 85 84 83 83 81 79 79 78 76 76 73 71 71 73 76 75 72 67 63 63 63 65 65 62 60 57 52
28 28 30 30 24 24 25 19 16 15 15 16 16 16 16 15 11 11 12 10 13 19 25 36 43 47 58 70 77 82 86 87 87 87 86 82 80 82 81 78 78 77 78 77 74 72 72 73 72 70 69 72 74 74 74 75 74 74 72 72 74 77 79 80 80 80 80 82 86 87 86 85 83 82 80 77 78 78 75 75 73 73 74 76 76 75 75 69 62 65 65 64 64 62 58 53 51
28 26 27 27 23 23 23 19 16 15 15 14 15 19 19 19 17 12 12 12 11 16 23 31 38 42 50 63 70 75 81 85 87 88 87 84 82 83 81 79 79 79 79 78 76 73 73 74 73 70 69 73 75 74 75 74 75 76 75 78 82 81 83 85 88 91 89 88 89 88 87 85 83 82 81 79 80 78 76 76 75 76 75 75 75 72 75 69 62 67 69 66 64 63 59 51 55
30 26 23 22 21 20 19 18 17 20 21 16 16 24 26 22 19 15 13 13 11 11 15 22 30 36 44 59 67 70 76 81 84 86 85 84 83 82 82 81 80 80 80 79 76 73 72 73 73 72 73 75 75 75 76 75 75 77 79 85 89 90 93 94 93 96 95 91 89 88 88 86 84 84 83 83 82 80 79 78 76 76 74 73 73 72 72 65 59 65 68 68 67 64 60 52 57
32 26 20 19 19 20 20 18 19 24 24 17 15 24 31 27 20 16 13 12 11 10 12 17 23 30 39 53 64 67 73 80 83 83 84 84 83 83 85 83 80 80 81 79 77 73 72 73 73 74 77 77 77 77 77 76 76 78 80 84 87 90 96 95 90 88 90 90 90 88 88 88 86 86 86 85 84 82 81 79 76 75 74 73 73 71 70 64 60 62 62 65 68 65 62 56 58
29 22 18 20 19 19 19 19 20 21 20 17 15 18 27 29 24 19 15 12 12 11 12 16 20 27 33 45 59 64 70 80 84 84 85 84 84 84 85 82 79 80 81 79 77 76 74 73 74 77 79 80 79 80 79 77 78 80 81 83 86 86 87 89 87 85 88 90 90 89 88 89 90 88 87 86 84 82 81 79 77 75 74 74 74 71 68 66 64 62 58 58 63 66 65 61 61
23 18 18 19 19 19 18 18 20 19 20 22 18 17 26 29 27 23 17 14 14 13 12 13 16 23 28 37 51 60 67 77 82 83 84 85 83 83 82 80 80 80 80 79 77 77 75 74 77 80 82 82 83 84 81 80 80 81 82 84 87 86 84 86 88 88 90 91 90 91 91 89 89 87 85 84 82 80 78 77 76 75 74 74 74 70 65 65 64 62 59 54 56 65 69 67 63
18 16 18 18 18 19 18 20 20 20 28 30 20 18 28 33 30 25 21 17 14 14 13 12 12 16 24 33 44 58 69 76 80 80 82 83 82 81 80 80 81 81 80 79 78 79 78 78 80 84 85 85 87 86 84 84 83 82 83 85 86 88 90 91 92 92 93 93 91 92 89 85 84 83 81 80 78 77 76 74 74 74 74 73 72 68 61 60 60 59 59 53 51 57 63 68 67
13 15 17 20 20 19 23 26 23 29 38 32 20 17 23 32 31 25 25 20 13 12 12 12 12 11 22 34 41 56 72 76 78 80 81 82 80 80 80 82 83 82 82 81 81 81 80 80 83 86 88 89 90 88 87 87 87 84 83 85 85 87 91 94 95 96 94 93 90 88 86 83 82 80 79 79 77 76 76 74 74 74 73 73 71 67 61 59 57 55 54 51 47 44 44 50 54
13 16 18 24 26 23 26 28 28 39 42 25 17 17 19 29 29 22 23 20 13 12 10 11 12 10 18 32 40 55 71 75 77 81 82 83 84 84 85 86 84 84 85 84 83 83 82 82 85 88 91 92 91 91 90 90 89 87 85 85 85 85 88 91 94 95 93 91 89 86 85 83 82 81 80 79 77 76 75 74 74 70 68 71 71 67 63 62 60 55 51 48 43 39 36 36 39
15 17 23 34 38 36 38 38 39 43 38 23 17 17 19 25 23 17 18 18 15 13 9 10 12 9 16 30 40 55 68 74 77 80 83 85 87 89 89 88 87 86 88 86 85 85 84 84 87 90 93 94 94 94 93 93 91 89 87 87 87 87 87 87 90 92 91 89 87 86 85 83 83 82 80 78 76 72 69 67 68 64 60 63 64 62 61 61 63 60 54 48 44 42 39 38 39
20 20 27 40 48 52 53 49 44 40 33 24 16 18 23 22 23 20 16 15 15 14 10 9 11 9 14 27 40 56 67 73 78 80 83 86 87 89 89 88 88 88 88 88 87 86 85 87 89 91 94 95 95 97 96 94 92 90 89 88 88 89 88 87 89 90 90 89 87 86 85 84 83 81 79 77 73 69 63 62 63 59 57 57 55 55 56 57 59 61 57 52 47 46 45 44 44
20 15 19 33 41 47 52 53 52 49 42 31 21 26 27 21 27 26 17 16 15 14 12 10 10 10 13 23 36 56 69 72 77 80 82 86 86 88 89 87 88 89 89 89 88 87 87 90 91 91 95 97 96 98 98 95 93 92 91 90 89 89 88 88 89 89 88 87 86 85 84 83 82 80 78 76 72 68 64 62 60 57 59 59 52 48 51 54 55 57 57 54 50 49 48 46 45
24 15 17 26 27 32 44 52 54 52 53 50 38 37 33 24 25 22 16 19 17 14 14 11 11 12 16 24 36 57 71 72 77 81 82 86 86 87 88 88 88 89 91 91 89 88 88 90 92 91 94 98 97 98 98 96 94 93 93 91 90 91 89 89 90 90 89 87 86 84 83 83 81 79 78 75 71 68 64 63 61 58 58 54 44 40 45 51 53 53 54 52 49 48 45 44 43
31 25 26 26 22 25 39 54 56 52 63 67 48 36 32 25 24 20 15 18 17 15 15 12 11 14 21 30 42 60 72 74 77 80 83 86 86 88 88 87 89 90 92 92 89 89 89 90 92 92 95 99 99 98 98 97 96 95 95 93 92 92 90 90 90 90 89 87 86 84 83 83 81 79 78 72 69 68 64 61 58 55 53 46 40 39 43 49 50 47 48 47 46 45 43 41 41
25 28 27 29 34 30 33 53 64 63 67 65 47 33 29 29 35 33 21 17 19 17 15 13 12 16 23 31 48 64 70 72 77 79 83 86 86 89 89 88 89 90 92 92 90 89 89 90 91 93 95 98 98 98 97 98 98 97 96 95 94 92 90 90 90 89 89 88 86 85 84 83 82 80 77 71 69 68 64 59 53 49 47 44 44 44 46 50 48 43 44 44 44 44 42 42 41
20 23 17 34 60 57 48 51 59 68 68 61 53 40 30 30 34 32 23 19 22 20 17 15 15 21 24 32 52 67 68 73 79 81 84 85 86 88 89 88 89 91 92 92 91 91 90 91 92 92 94 96 97 98 98 99 99 97 97 96 95 93 91 91 90 89 90 89 87 86 85 84 82 79 74 71 72 69 64 59 51 46 47 48 48 48 48 50 45 41 43 45 46 45 41 42 40
21 20 17 39 62 61 57 52 52 71 79 71 64 52 41 36 27 22 22 22 24 23 21 19 21 25 26 36 56 67 69 75 80 82 83 84 86 87 88 88 89 91 93 92 91 92 92 92 93 92 94 95 97 96 96 99 99 98 97 97 96 94 92 91 90 90 91 90 88 87 86 85 81 77 74 72 72 69 65 61 52 47 48 49 49 48 47 46 42 40 42 44 46 43 39 40 40
28 26 27 41 51 47 50 51 44 54 70 73 67 61 54 40 26 23 23 24 26 25 23 23 25 27 26 36 54 63 69 76 78 79 81 83 85 87 87 88 89 91 92 92 91 91 93 94 93 92 93 94 95 95 95 97 98 98 98 98 97 94 92 91 91 91 91 90 89 89 89 86 80 78 75 73 72 69 66 62 55 50 49 49 49 48 46 44 40 41 42 43 44 41 38 40 43
27 29 30 36 47 53 57 64 55 43 50 57 55 60 57 36 29 32 30 31 34 32 29 26 26 27 26 32 47 60 68 75 77 76 79 82 85 87 87 88 90 92 92 92 92 91 93 94 92 91 92 93 94 94 95 96 97 98 98 98 97 94 93 92 92 92 92 92 93 92 89 85 80 78 76 74 72 68 66 63 56 51 50 50 50 48 45 42 40 42 44 44 43 39 37 41 42
Wind_Speed
11 11 11 9 3 8 3 2 2 3 2 2 4 2 4 2 5 5 3 6 4 1 3 8 8 9 10 10 11 8 5 5 6 3 2 2 12 26 26 25 32 33 33 31 28 26 25 26 24 24 23 22 21 20 20 20 20 19 19 19 19 18 17 16 14 14 14 14 12 12 13 13 13 14 13 11 11 10 12 15 13 12 12 12 12 13 13 11 11 11 11 12 12 13 15 16 17
12 12 11 4 6 6 0 2 2 3 3 5 5 3 5 5 8 7 5 4 3 6 5 9 11 11 12 13 12 7 2 4 5 0 1 8 20 23 27 30 32 34 34 32 29 28 27 26 25 25 23 22 22 21 21 20 20 20 20 19 18 18 17 16 14 14 14 13 12 12 12 12 12 12 12 11 10 11 15 15 13 13 12 12 13 13 13 12 12 12 12 13 13 14 16 17 17
13 13 11 4 5 4 2 3 1 3 3 5 7 5 3 4 7 8 2 3 5 8 7 11 11 11 13 10 9 8 2 7 3 3 3 14 18 19 32 33 33 34 34 33 30 30 28 27 26 24 22 23 23 22 22 21 21 21 20 19 18 18 17 16 15 14 14 13 12 11 11 11 10 10 11 10 10 12 15 15 14 13 12 13 13 14 13 12 11 12 12 12 14 16 18 18 17
13 12 10 5 4 4 4 2 1 2 4 4 6 7 2 3 5 8 6 4 6 11 9 9 5 5 11 11 8 7 4 5 3 8 5 12 16 25 35 33 35 35 34 33 31 31 29 28 27 24 23 23 23 22 22 22 21 21 20 19 18 18 17 15 14 14 13 13 12 10 10 9 9 9 9 9 10 12 13 14 14 13 13 13 13 14 13 12 11 12 11 12 15 17 18 18 17
12 10 5 3 2 1 3 1 1 2 5 4 3 9 6 3 5 7 5 1 4 10 10 7 4 3 5 10 8 4 8 6 8 15 10 12 23 34 35 34 36 34 34 33 32 31 29 28 27 25 24 24 23 22 21 21 21 21 20 19 18 17 16 15 14 14 13 12 11 10 9 8 7 7 7 7 9 11 12 13 14 13 13 13 14 14 12 11 11 11 11 13 15 16 17 17 16
11 8 3 3 2 2 2 2 3 4 7 4 3 12 12 6 7 9 4 3 8 5 9 9 9 5 1 4 2 3 13 10 10 18 17 20 31 37 35 36 35 33 34 33 32 31 29 28 27 26 25 24 23 22 21 21 21 21 20 19 18 17 16 16 14 14 13 12 11 10 8 7 6 6 6 7 9 10 11 12 13 13 13 13 14 13 11 11 11 10 12 14 15 15 15 15 14
10 5 3 3 1 1 2 5 6 5 9 8 5 13 14 8 6 8 9 1 5 8 6 6 9 8 1 2 2 2 12 14 13 20 26 32 36 37 36 36 35 34 34 32 32 30 29 28 28 27 25 25 23 22 22 21 21 20 19 19 18 17 17 16 15 14 13 12 11 9 7 7 6 6 6 7 9 11 11 12 12 12 12 13 12 11 11 11 10 12 13 14 14 15 15 14 13
6 1 1 3 0 0 3 6 6 5 9 11 7 14 15 9 7 5 9 6 2 5 3 5 9 9 1 2 3 2 8 13 18 26 33 37 37 36 36 36 35 34 33 33 31 29 28 28 28 27 26 25 23 22 22 22 21 19 19 19 18 17 17 16 15 14 13 12 10 9 7 6 5 6 6 7 9 11 12 12 12 11 12 12 11 11 11 11 11 13 14 14 14 14 14 14 13
4 1 1 2 2 2 4 5 6 5 9 15 11 15 16 8 7 5 9 11 3 1 3 7 6 8 4 6 3 2 10 19 26 31 36 37 37 35 34 35 35 34 33 32 31 29 28 28 28 27 27 25 23 22 22 22 20 19 19 18 18 17 16 16 15 14 13 12 10 8 6 5 5 5 6 7 9 11 13 12 11 11 11 11 11 11 12 12 12 12 13 14 14 14 14 13 13
2 1 1 2 2 4 5 4 5 4 8 15 13 16 16 9 8 7 9 13 8 2 4 3 3 8 8 7 3 2 13 29 33 31 34 35 34 33 33 33 33 35 34 32 31 30 28 27 27 27 26 24 23 23 22 22 20 19 19 18 18 17 16 15 15 14 12 11 10 7 5 4 4 4 5 7 8 10 13 14 12 11 10 10 10 10 12 13 12 12 12 13 13 14 13 13 12
2 2 2 3 3 5 6 4 5 5 7 11 13 15 13 8 8 9 9 12 9 2 7 4 6 8 9 4 2 8 22 33 34 30 31 32 31 32 32 31 30 33 35 33 31 29 28 25 25 26 25 24 23 23 23 22 21 20 19 18 17 17 16 15 14 13 12 10 9 6 3 3 2 4 5 7 8 9 12 14 12 11 10 9 9 10 13 13 12 12 11 12 13 13 12 12 12
1 2 2 3 5 5 5 5 6 7 7 9 14 14 7 4 7 10 9 11 8 2 7 5 7 7 8 3 1 11 22 26 31 32 31 31 30 32 32 30 29 31 33 33 31 29 28 26 25 25 23 23 22 23 23 22 21 20 19 18 17 17 16 15 14 13 11 9 7 5 3 2 2 4 5 7 8 9 12 14 12 11 10 9 9 11 12 12 12 12 11 11 11 11 12 11 11
3 3 3 4 4 4 5 6 6 6 7 8 12 13 6 4 8 11 8 10 9 4 6 9 10 6 6 4 4 9 15 20 28 32 32 32 31 33 32 30 28 29 31 32 31 29 28 27 25 24 22 21 21 22 22 21 21 20 19 18 17 17 15 15 13 12 10 8 6 4 3 3 3 4 6 8 8 8 10 12 12 11 10 9 9 12 12 11 12 12 11 11 10 11 11 11 10
4 3 4 4 3 5 7 6 6 6 7 7 9 12 9 4 8 11 5 9 11 5 5 12 13 8 6 5 5 5 13 22 26 31 33 33 33 33 32 30 28 29 31 32 31 30 29 27 26 25 22 21 20 21 21 20 20 20 19 18 17 16 15 14 13 11 9 7 5 4 5 4 5 6 7 8 8 8 8 10 11 11 11 10 11 13 12 11 11 11 11 10 10 10 10 10 9
4 2 3 3 4 6 7 7 7 8 7 7 7 9 12 8 8 10 7 10 9 4 7 8 8 7 8 9 7 6 18 29 29 32 33 33 34 33 32 30 29 30 31 32 31 30 30 28 27 25 24 22 21 21 21 20 19 19 19 18 17 16 15 13 12 10 8 6 6 6 7 6 6 7 8 9 9 8 8 8 10 11 12 11 12 13 12 11 10 10 10 10 10 9 8 8 7
2 2 2 4 7 8 8 7 8 8 6 6 6 5 11 13 9 9 10 8 2 7 8 4 5 5 13 12 13 18 25 32 33 35 34 33 33 31 31 30 30 30 31 32 31 30 30 29 28 26 25 23 22 22 22 21 20 19 18 18 17 16 14 13 11 10 8 7 7 8 8 8 9 9 10 10 9 8 8 8 8 10 10 12 13 13 12 10 10 9 9 9 8 7 5 5 5
0 2 5 7 9 10 8 8 8 7 4 6 8 8 10 14 9 8 10 6 6 7 6 3 3 3 12 13 24 33 31 34 38 38 34 31 30 27 26 27 27 27 28 30 31 31 30 30 29 27 26 24 24 23 22 21 20 19 18 17 17 15 14 12 11 10 9 9 9 10 10 10 11 11 11 10 10 9 8 8 8 8 10 12 13 12 11 10 9 8 8 7 6 4 3 3 3
2 3 7 9 10 10 9 9 9 6 6 6 9 12 13 15 11 6 9 8 7 7 4 4 4 6 4 14 32 38 34 39 41 37 32 27 26 23 22 24 26 26 27 28 29 30 30 30 29 27 26 25 25 23 23 22 20 20 19 18 17 16 14 13 12 11 11 11 12 12 12 13 12 11 10 9 9 9 8 8 8 8 9 11 11 11 10 9 8 8 7 6 5 4 3 2 1
5 4 8 11 10 8 8 10 9 8 9 6 8 11 12 15 12 6 8 12 8 4 5 5 8 9 9 15 27 32 34 37 37 35 31 27 25 23 22 23 25 26 28 28 29 30 30 30 29 28 27 26 25 24 24 23 21 21 20 19 18 16 15 13 12 12 12 14 14 12 12 13 12 11 10 8 8 8 8 7 8 7 7 8 9 10 9 9 9 8 7 6 5 4 3 1 1
6 6 9 11 9 7 8 11 11 10 9 8 10 11 10 12 9 5 7 11 13 8 4 8 8 10 12 13 18 25 30 30 31 32 28 27 27 26 26 25 26 27 30 31 30 29 30 31 30 29 28 27 26 25 24 24 22 22 21 20 18 17 16 14 13 12 13 15 14 11 11 11 11 10 9 8 7 8 8 7 7 7 6 7 7 8 7 8 7 7 6 6 5 3 2 2 2
3 6 11 10 7 9 10 11 12 12 10 9 10 12 14 11 7 7 7 9 12 14 7 11 13 14 16 15 15 20 23 23 26 28 26 25 26 27 28 28 29 30 31 31 30 30 30 31 30 30 29 28 28 26 25 24 23 22 22 20 18 17 16 15 14 14 14 15 14 11 10 10 9 8 8 7 6 6 8 7 7 6 6 6 6 6 5 5 5 5 4 3 3 2 2 2 2
5 9 13 9 7 9 10 11 13 12 11 12 11 13 14 9 6 9 11 10 9 12 13 12 18 19 19 18 17 16 17 19 20 22 24 25 25 26 27 28 29 30 31 30 31 32 31 31 30 30 29 29 28 26 25 25 24 23 22 21 18 17 16 15 15 16 16 15 14 11 9 10 10 8 7 6 5 6 7 7 7 7 7 6 6 5 4 4 4 4 3 3 2 1 2 2 2
7 11 13 11 9 9 8 10 12 11 12 14 13 12 12 9 8 9 13 14 9 11 15 15 16 20 24 21 18 17 17 18 19 22 26 27 27 28 29 30 30 31 31 31 32 32 32 32 31 30 30 29 28 26 26 25 25 24 22 20 18 17 16 16 16 18 17 15 13 10 9 11 11 10 9 8 7 6 6 6 7 7 7 7 6 5 5 5 4 3 3 2 2 3 3 3 3
10 13 13 11 11 11 11 10 9 10 13 14 13 11 13 14 10 8 12 14 13 12 13 19 18 19 23 20 17 19 20 19 20 24 29 30 30 31 32 32 32 32 32 31 33 33 33 34 32 31 30 29 28 26 26 25 24 24 22 20 19 18 17 19 19 18 16 14 11 10 9 11 11 11 10 10 8 8 7 7 7 8 8 7 6 6 5 5 4 3 3 2 3 5 6 5 6
12 13 12 10 10 12 12 12 12 11 10 11 13 15 17 19 14 9 12 11 13 15 14 18 18 18 20 21 20 18 17 16 16 20 24 26 28 29 30 31 32 32 33 33 33 34 35 35 35 33 31 30 28 27 26 25 24 23 22 21 20 19 20 22 20 17 15 13 11 11 10 12 13 12 12 11 10 9 9 9 9 9 9 7 7 6 5 5 3 4 4 3 5 8 8 8 9
10 11 10 10 10 10 10 12 16 15 10 8 11 17 19 22 17 12 15 11 10 13 13 13 17 20 18 20 21 18 17 16 16 19 22 24 26 26 27 30 32 32 34 35 35 35 36 36 36 34 32 30 28 27 26 26 25 24 23 22 22 21 21 21 19 16 14 13 13 13 13 13 13 13 13 12 12 11 11 11 10 10 10 9 8 6 7 7 5 6 6 5 7 9 10 11 12
9 12 12 12 12 10 11 12 15 15 15 14 13 15 18 19 16 11 13 13 11 8 7 13 20 21 19 17 18 18 18 19 22 23 21 21 24 25 27 30 30 32 35 36 36 36 36 36 36 35 33 30 28 27 27 27 26 24 23 22 22 23 22 20 18 16 16 16 15 15 15 15 14 13 13 13 13 12 13 13 11 11 11 10 9 8 8 8 7 8 8 7 9 11 11 12 13
10 12 14 15 13 12 12 13 14 12 13 19 18 16 17 15 13 13 13 12 11 6 8 13 19 21 20 19 17 15 15 20 26 24 21 22 25 28 29 31 32 33 36 37 37 38 37 37 37 36 34 30 29 28 27 27 27 25 23 23 24 24 22 20 19 17 18 19 17 17 17 16 15 14 14 14 14 14 14 14 13 13 13 11 10 9 9 9 8 8 8 8 11 12 12 12 15
10 10 11 12 12 12 13 12 13 12 11 16 17 16 17 16 16 19 17 10 6 9 12 13 16 17 18 18 16 14 14 20 23 22 26 29 31 33 33 34 35 35 36 38 39 39 38 38 38 37 35 31 30 29 27 28 28 26 24 23 24 25 23 20 20 20 20 19 19 19 18 17 16 15 15 14 14 15 15 15 15 14 14 12 11 10 10 10 9 10 10 10 12 13 14 17 20
9 9 7 8 9 11 12 11 12 14 12 13 13 12 15 18 22 23 18 9 5 10 13 13 12 11 12 13 12 12 13 16 19 23 30 33 34 37 36 36 37 36 35 37 39 39 39 38 38 37 36 33 32 30 28 28 28 26 25 24 24 24 22 22 22 21 20 19 18 19 18 17 16 16 16 15 14 16 16 16 16 15 14 13 11 10 11 11 10 11 11 11 13 16 18 22 23
7 8 6 5 6 8 9 10 11 13 13 12 12 11 14 18 21 23 19 11 8 10 13 13 12 11 10 11 12 11 12 14 19 23 28 31 34 37 37 37 37 36 35 37 39 40 39 38 37 36 36 35 34 32 28 28 28 27 25 25 25 23 23 25 24 20 19 18 18 18 18 17 16 17 16 15 15 16 17 18 17 15 15 14 12 11 12 12 11 12 12 13 18 21 23 23 23
4 5 6 5 6 8 9 10 11 12 12 13 13 10 14 18 20 19 17 13 9 10 13 13 13 15 13 12 12 13 13 14 17 19 21 25 28 31 36 38 39 39 38 38 39 39 39 38 36 35 35 35 35 32 28 28 28 27 26 26 25 23 25 27 24 21 20 18 18 18 18 17 17 17 16 16 15 16 18 19 18 17 15 15 14 13 13 13 12 12 11 15 21 23 24 23 22
3 4 6 7 6 7 8 10 12 13 11 12 14 11 12 15 18 17 14 15 11 10 11 12 12 15 16 13 13 13 13 13 14 17 21 25 26 29 34 38 40 41 40 40 40 39 38 37 36 34 34 35 34 31 29 29 29 29 27 26 25 25 26 25 22 22 21 19 18 17 17 18 18 17 16 16 15 16 17 18 18 17 16 15 14 14 14 12 12 12 12 15 20 23 23 22 22
5 5 6 7 8 7 7 8 11 13 11 11 13 14 16 13 12 16 17 16 12 10 12 14 13 13 15 14 14 13 13 14 14 18 25 30 32 32 35 38 40 40 41 42 41 40 39 37 36 34 33 34 33 31 31 31 30 29 28 27 26 26 25 24 23 23 22 21 19 16 17 18 18 17 16 15 14 14 16 17 17 17 16 14 13 15 14 13 12 11 13 16 18 21 22 22 21
7 7 5 5 7 8 8 7 9 11 12 12 11 14 21 17 10 12 17 19 13 9 12 16 15 15 15 14 14 13 14 16 16 22 31 33 34 35 36 38 39 40 41 41 41 40 38 36 36 35 33 34 33 32 32 32 31 30 29 27 28 27 25 25 24 24 24 22 18 16 17 18 18 17 17 15 14 15 17 17 17 17 16 13 13 14 15 14 12 11 14 17 18 18 19 20 20
10 9 7 7 7 7 9 9 9 11 11 12 12 14 19 20 16 12 11 17 19 11 10 15 15 14 14 13 13 13 15 16 17 26 34 35 37 38 38 39 40 40 41 40 39 38 37 35 35 34 33 34 34 33 33 34 32 31 30 29 29 28 27 26 25 24 24 21 18 18 18 18 19 18 17 16 15 17 18 18 17 16 14 14 14 14 15 15 13 12 14 17 19 19 18 18 18
12 10 10 10 9 8 9 10 10 10 10 11 12 17 21 18 17 16 10 11 19 16 11 13 15 14 14 14 14 14 15 15 15 21 28 32 37 39 38 38 38 37 38 39 38 37 37 36 35 34 33 34 35 34 35 36 34 33 32 31 31 30 29 27 26 25 23 20 19 19 18 18 20 19 17 17 17 17 16 16 16 15 13 13 13 13 13 13 13 13 14 18 20 21 20 18 18
12 11 10 11 10 9 10 12 12 9 8 9 11 15 22 19 14 15 13 10 14 16 13 15 17 16 14 16 16 15 13 12 12 14 18 24 30 34 36 36 37 37 38 40 39 38 37 37 36 35 34 34 34 34 35 36 35 35 33 32 32 31 30 29 28 25 23 21 20 19 18 19 20 20 18 18 18 17 17 16 15 14 13 13 13 12 12 12 12 13 16 20 21 21 21 19 18
10 8 8 9 8 8 10 13 15 12 6 7 10 12 15 17 15 14 16 14 11 13 12 16 19 17 15 16 17 16 14 12 12 13 16 21 27 32 33 34 37 39 39 40 40 39 38 36 36 35 35 35 34 35 35 35 35 34 32 31 31 31 30 29 27 24 22 21 20 19 19 19 20 20 21 21 21 20 20 19 17 16 14 14 14 13 13 12 12 13 17 21 23 21 19 20 18
9 7 7 8 8 8 8 10 14 13 8 8 11 11 9 10 12 13 14 15 13 11 10 14 19 19 18 18 17 17 17 14 15 15 16 20 25 28 30 33 34 35 36 38 39 40 38 37 37 37 36 36 35 35 35 34 33 32 30 30 30 29 27 26 25 23 22 21 20 20 19 19 20 21 22 23 22 22 21 20 18 17 15 15 14 14 14 14 14 15 17 21 23 22 20 20 16
9 10 8 8 9 10 9 10 13 12 11 10 9 10 8 5 8 11 12 14 15 14 11 11 15 18 19 19 19 20 20 18 18 18 17 18 21 25 31 33 34 35 37 39 40 41 39 38 38 38 38 37 35 35 35 34 32 30 29 28 27 25 24 24 24 23 23 22 21 21 20 20 22 23 23 23 23 22 21 20 19 17 17 16 14 14 14 15 17 17 17 20 21 21 20 21 15
8 10 11 12 12 12 11 13 13 9 9 10 6 5 7 5 8 10 10 13 17 17 14 11 13 16 17 16 17 19 19 20 20 21 20 18 20 25 30 32 34 35 36 39 41 41 40 39 39 39 38 37 36 36 35 35 33 32 32 30 27 25 23 25 27 26 25 23 22 21 21 22 24 24 23 22 23 22 21 19 18 18 17 16 15 14 14 16 18 17 17 18 19 19 19 20 17
7 8 10 14 14 13 13 14 12 6 7 10 7 5 5 4 7 10 11 14 18 18 16 12 12 14 16 15 15 17 17 17 19 20 21 20 20 22 24 31 35 34 34 37 40 39 39 40 39 39 38 37 37 37 36 36 35 34 33 32 29 27 25 25 27 28 26 24 23 21 22 24 24 24 22 22 22 22 21 19 17 16 16 16 15 15 17 17 18 17 16 16 18 19 19 20 19
7 9 11 13 14 14 14 14 12 7 7 12 9 5 5 5 5 9 13 16 19 20 17 13 11 13 17 18 18 19 18 17 17 18 19 20 20 22 26 33 36 34 34 38 39 39 39 40 40 39 38 38 37 37 37 37 36 35 34 32 29 28 28 27 27 27 25 24 23 23 24 24 23 23 22 21 21 20 20 19 17 16 15 16 15 16 18 18 18 17 15 15 17 19 19 19 19
9 12 13 12 12 13 12 11 11 9 7 10 10 5 4 5 6 7 11 16 18 19 19 16 13 13 16 19 19 19 18 19 19 19 20 19 21 26 33 36 35 34 37 40 40 40 39 40 40 38 37 37 37 37 38 38 37 35 33 31 29 28 28 28 27 27 26 26 25 24 24 24 23 22 21 20 20 19 19 18 17 15 14 15 16 16 17 17 17 17 16 15 16 18 19 18 19
9 12 13 13 12 10 9 7 8 9 7 9 13 7 4 5 5 6 6 11 14 15 16 17 16 14 13 15 19 18 16 17 19 21 21 21 25 32 36 35 33 35 38 40 39 38 38 38 38 37 37 37 37 38 38 37 36 35 34 32 30 29 27 27 27 28 28 27 26 26 25 24 23 23 22 20 19 18 18 17 16 15 15 16 16 17 17 17 16 16 16 15 15 17 18 18 19
9 9 10 12 11 8 7 5 5 7 5 10 17 11 5 5 6 5 5 8 12 13 13 15 17 15 11 12 16 17 16 15 16 18 19 21 28 33 33 30 31 33 35 37 37 36 37 37 37 37 37 36 37 38 38 37 35 35 35 33 33 31 29 29 29 29 29 29 29 28 26 25 23 22 21 20 18 18 17 15 14 14 16 17 16 16 16 16 16 16 15 16 16 17 18 18 18
7 6 4 6 7 5 5 4 4 6 5 9 16 12 9 7 6 6 6 8 12 14 15 15 17 17 13 12 14 15 16 16 16 16 16 17 20 22 23 24 28 30 32 34 36 36 37 37 37 36 35 36 37 38 38 36 35 35 34 34 34 34 33 32 32 32 32 31 31 29 27 25 23 21 20 19 18 17 16 16 15 16 17 18 16 15 16 17 16 16 16 16 17 17 18 18 17
5 5 3 2 3 3 4 4 4 5 5 8 12 10 8 7 7 12 14 13 12 13 16 17 18 17 13 13 14 13 15 17 17 16 15 15 15 14 17 22 26 28 32 34 35 36 36 36 37 36 35 36 37 37 37 36 35 35 34 34 34 34 34 34 34 34 33 33 33 31 28 26 24 22 20 18 17 16 16 17 18 18 18 18 17 17 17 18 18 17 17 17 18 19 18 17 17
3 2 1 2 1 1 3 4 3 4 5 8 12 9 6 5 7 14 18 17 13 13 15 17 19 18 15 14 14 13 15 17 17 17 16 16 16 15 18 23 26 28 32 34 35 36 35 35 36 36 35 36 37 37 36 36 36 35 34 34 34 34 35 35 34 34 34 33 33 32 30 27 25 23 21 19 17 17 17 18 19 18 16 16 17 18 18 18 19 19 19 19 19 19 18 18 17
5 3 2 2 2 2 3 3 2 3 5 7 8 7 6 6 6 9 13 13 11 11 13 15 17 17 16 14 14 14 17 18 17 18 18 18 18 18 20 25 28 29 32 34 34 35 35 34 36 37 36 36 37 37 36 36 36 35 34 34 34 35 35 35 34 34 34 34 33 32 29 27 26 23 21 19 18 18 18 19 19 18 16 17 17 18 18 19 20 20 20 20 20 19 19 18 18
5 3 3 3 3 4 4 2 3 2 4 6 4 4 4 5 6 9 10 9 7 9 12 14 15 14 14 14 15 15 16 17 17 17 18 19 19 19 22 26 28 30 32 33 34 35 35 35 37 38 38 37 37 37 36 36 35 34 34 34 34 34 34 34 33 33 34 34 33 31 29 27 25 23 20 19 19 19 19 18 19 18 18 18 17 18 20 21 22 22 22 21 20 20 19 19 18
3 1 3 3 4 5 3 3 1 1 3 5 4 4 3 2 6 10 11 10 9 10 12 15 16 15 15 15 14 14 15 16 17 17 18 19 17 18 23 27 28 30 32 34 36 37 38 37 37 37 36 35 36 36 36 36 35 34 33 33 34 34 34 34 34 33 33 32 32 31 29 27 24 22 21 21 21 21 20 19 19 19 20 19 19 20 22 23 23 22 22 22 21 20 20 19 19
1 2 3 3 5 3 3 1 1 2 3 5 4 5 4 4 6 7 7 10 11 10 11 17 18 17 17 17 15 16 18 18 19 18 18 19 18 18 22 27 30 33 36 37 38 38 38 38 38 38 37 37 37 37 37 35 34 34 33 34 34 35 35 34 34 33 33 32 31 29 28 26 24 23 22 22 22 22 21 21 20 21 21 21 21 22 22 23 23 22 22 22 22 21 21 20 18
4 4 2 2 1 2 1 2 1 1 3 4 4 5 5 6 6 5 5 8 8 9 12 15 15 16 17 17 15 17 18 17 17 17 17 17 18 18 22 27 30 32 35 36 37 37 36 36 37 37 37 37 37 36 35 34 33 33 33 33 34 34 34 34 33 33 32 32 31 29 28 27 25 24 24 24 24 23 22 22 22 23 23 23 23 23 23 23 22 22 23 23 22 22 21 20 18
2 2 1 1 2 2 2 2 2 2 2 3 4 4 2 5 6 7 8 7 7 9 10 10 11 14 16 15 15 17 17 15 16 16 17 18 18 20 26 29 30 32 33 33 34 34 34 34 34 34 34 34 35 35 35 33 32 32 32 33 34 34 34 33 33 33 32 31 30 29 29 28 27 26 26 26 25 25 24 24 24 24 24 24 24 23 23 23 22 22 23 24 23 22 21 20 19
1 1 2 2 1 1 1 2 1 2 2 2 3 4 4 5 4 4 7 6 6 7 8 8 9 13 15 15 16 18 17 16 17 17 17 19 18 20 25 28 29 31 32 33 34 34 33 32 32 33 33 34 35 36 35 34 33 32 32 32 34 34 34 33 33 33 32 31 30 30 30 30 29 28 28 27 27 26 26 25 25 26 25 25 25 24 23 23 22 23 23 23 23 22 21 20 19
4 4 4 5 3 1 0 2 3 2 2 2 4 5 6 5 1 1 3 6 7 8 9 9 10 13 16 16 17 19 18 17 18 19 19 18 17 17 21 25 26 28 30 32 33 32 31 31 32 33 33 34 36 35 35 35 33 32 31 32 33 34 33 33 33 32 32 31 31 32 32 32 31 30 29 28 28 27 26 26 26 26 26 25 24 24 23 23 23 24 23 23 23 23 22 21 20
Wind_Direction
330 327 341 354 96 135 138 82 20 327 46 307 270 287 278 285 313 311 117 128 112 255 186 136 131 121 121 120 121 119 131 188 252 247 240 292 142 156 167 167 159 155 152 151 152 153 153 152 150 149 147 145 147 145 144 143 139 137 136 138 134 128 126 125 125 119 115 111 108 106 100 99 94 92 94 98 99 92 107 117 118 118 115 115 117 121 121 117 112 108 104 100 98 100 106 113 118
322 321 335 12 104 115 325 57 52 327 14 304 282 247 282 338 324 305 169 168 140 167 162 122 110 102 106 110 114 101 126 256 282 78 27 139 137 151 165 164 161 157 154 153 154 154 154 153 152 151 148 147 148 146 145 143 140 139 138 140 135 129 128 128 126 121 119 116 114 111 106 104 97 92 95 100 97 94 111 118 118 120 116 115 117 120 120 114 110 109 105 100 99 103 109 115 118
323 327 345 34 84 67 53 33 352 315 329 287 284 259 287 325 323 339 57 113 103 125 120 111 105 109 108 101 113 112 171 292 304 95 102 149 141 150 160 161 160 158 156 156 156 155 155 154 154 151 147 148 147 147 145 142 141 140 141 141 137 131 130 131 128 126 122 119 116 112 113 112 103 94 94 100 99 98 111 119 119 120 118 117 119 121 120 116 113 108 103 103 105 109 114 119 120
332 340 358 31 42 30 70 29 270 232 273 253 276 276 260 286 325 358 28 72 120 126 125 117 107 140 123 124 140 116 146 263 198 135 157 178 163 155 157 156 156 155 155 157 157 156 156 155 153 150 148 148 147 146 144 142 142 142 143 143 139 134 133 134 132 130 124 121 118 116 119 116 107 96 96 103 108 107 111 120 121 121 120 120 122 122 121 117 113 106 104 108 109 113 119 121 121
344 356 14 70 83 42 94 121 232 186 245 225 261 284 279 289 322 339 26 45 193 143 144 137 137 206 124 136 155 133 161 208 178 155 166 181 165 156 156 156 155 154 154 156 157 157 156 154 153 151 149 148 148 146 143 142 143 144 145 145 142 138 137 136 135 133 128 125 123 122 122 117 109 96 95 107 123 121 116 122 125 124 124 124 124 124 124 122 114 107 108 110 112 116 121 122 121
347 6 48 85 107 143 122 209 244 234 247 231 243 279 279 295 317 319 340 201 228 197 160 152 150 158 76 143 150 157 161 166 165 167 165 160 161 158 157 156 154 154 154 156 158 158 156 155 154 151 150 149 148 146 145 145 145 146 147 147 146 143 141 140 140 137 133 130 128 129 125 118 108 96 93 108 128 128 124 127 127 128 129 129 128 128 127 123 115 112 114 113 114 117 120 121 120
348 3 44 62 31 110 154 216 223 232 252 237 232 269 275 294 309 315 322 280 214 246 215 172 143 119 99 168 21 86 151 154 154 167 166 158 159 158 157 156 154 154 155 157 158 157 156 157 154 152 151 149 148 147 147 148 148 148 148 148 148 147 145 145 144 141 137 135 135 131 127 120 105 94 95 108 123 125 124 126 128 130 134 135 133 130 124 121 120 119 118 116 115 117 119 120 117
356 -0 37 96 60 205 179 216 217 207 253 248 229 260 271 290 301 311 312 316 215 247 239 173 134 109 43 62 64 57 113 143 151 157 158 154 156 155 156 155 153 154 156 158 157 156 156 157 155 152 151 149 148 149 149 150 150 150 149 150 150 150 149 149 148 144 140 139 138 133 130 123 105 96 100 112 122 126 125 126 131 133 136 138 136 131 130 130 126 122 120 118 118 117 119 119 116
11 164 354 123 176 233 211 221 232 208 244 257 246 256 268 278 285 292 293 297 287 161 178 190 143 120 121 76 90 52 95 129 140 146 150 151 154 153 154 156 155 155 156 157 156 156 157 158 155 153 152 150 150 150 151 152 152 152 151 151 152 152 151 151 149 146 144 142 141 142 140 125 108 98 103 119 125 130 133 133 135 138 141 141 140 139 140 135 127 124 123 122 121 119 120 120 116
17 195 185 176 183 215 236 223 236 226 230 253 256 254 264 270 274 274 275 282 276 174 170 183 95 118 122 100 96 77 117 130 131 136 146 150 152 151 154 159 160 158 156 156 156 157 157 157 155 154 153 152 153 152 154 154 153 153 153 154 154 153 152 152 151 149 148 145 147 150 144 122 110 100 109 127 129 135 141 140 139 143 147 148 149 147 143 136 129 126 124 125 124 122 121 119 114
23 293 155 193 221 211 230 221 231 236 230 253 261 254 259 267 275 268 253 264 275 149 144 105 97 118 103 97 82 120 130 131 132 139 148 149 149 151 155 159 162 160 158 157 157 158 157 157 157 156 155 156 157 155 156 156 155 156 156 158 156 155 155 154 152 151 151 150 151 151 142 120 108 108 121 136 135 138 145 144 142 148 152 153 157 154 146 138 133 129 127 128 126 125 123 118 110
144 275 153 202 220 211 218 216 233 241 243 253 261 261 250 242 264 264 252 257 276 146 168 156 145 133 104 121 123 128 131 133 138 144 150 149 149 152 155 157 159 159 159 159 158 158 157 157 158 158 159 160 160 159 159 158 158 158 159 160 159 158 158 157 155 155 155 154 155 152 151 142 127 123 132 145 140 139 148 147 146 152 157 160 164 158 150 142 136 133 132 130 129 128 123 118 109
185 193 166 220 205 201 220 218 229 234 245 239 253 265 244 225 257 257 257 261 271 272 218 176 162 146 111 130 136 133 133 138 141 146 151 148 149 152 153 155 156 158 160 161 160 159 158 157 158 161 164 164 163 162 160 160 160 160 161 162 162 160 159 160 159 158 157 156 156 153 157 159 150 137 140 151 145 140 149 154 153 157 163 169 172 164 155 146 141 138 136 134 131 128 121 117 111
196 179 164 225 218 206 220 223 220 217 242 232 240 266 261 240 253 259 253 257 269 261 196 161 148 123 115 134 143 154 145 145 141 145 148 145 148 149 151 154 156 159 160 163 161 160 158 157 159 162 167 167 165 163 161 161 162 163 164 165 164 162 162 163 162 158 156 156 155 153 158 163 159 146 146 154 149 141 144 157 162 163 169 177 177 167 158 152 147 143 140 138 133 127 122 120 117
196 193 166 212 226 221 218 217 219 218 235 230 226 258 268 258 242 264 245 244 268 175 141 151 149 124 154 162 162 186 157 149 142 143 143 141 145 146 150 154 156 158 160 163 162 161 159 158 161 165 169 168 167 165 162 162 164 166 166 166 166 165 165 165 163 157 153 154 156 157 160 162 159 151 151 153 151 143 134 147 161 167 174 180 176 167 161 158 153 149 145 140 135 131 128 125 121
192 183 216 227 222 224 217 206 217 228 221 217 236 245 265 270 247 260 245 220 218 145 139 183 230 157 166 171 158 168 159 147 141 141 137 136 140 143 147 150 153 156 159 163 164 163 160 161 164 168 170 168 170 167 163 165 167 167 167 168 168 168 168 167 164 156 153 155 157 157 156 155 153 149 150 152 151 144 133 132 144 157 167 170 169 167 165 163 159 155 150 147 144 143 138 129 119
12 176 226 229 223 221 208 198 209 225 218 207 236 237 248 267 254 253 251 209 141 149 147 169 279 141 169 175 156 157 154 143 139 138 134 136 137 138 144 147 151 154 160 164 165 164 162 164 167 170 171 170 172 168 166 167 167 169 170 170 170 171 169 167 165 157 156 155 150 144 137 137 139 142 147 152 151 145 136 129 131 143 154 161 165 168 169 169 168 166 164 166 165 165 157 138 116
178 192 226 226 223 219 200 203 211 214 227 207 217 229 233 251 250 243 255 234 157 132 117 121 70 41 112 148 149 149 146 141 140 140 138 142 143 143 148 151 154 157 161 164 165 166 165 167 170 172 172 172 173 169 169 167 167 172 173 173 175 175 170 169 167 161 161 156 146 134 127 123 123 129 139 151 152 145 139 134 134 137 149 161 170 174 177 178 178 181 185 189 191 192 186 162 87
199 203 224 227 221 212 197 207 216 212 223 221 223 234 230 240 245 223 236 241 216 140 91 98 88 73 85 126 144 143 141 143 145 146 146 151 152 152 154 157 159 160 162 165 168 169 168 170 172 174 173 174 173 172 173 168 170 177 176 179 179 176 172 171 169 165 166 160 148 134 127 121 117 117 121 135 148 151 148 144 144 144 151 159 171 180 186 190 192 198 202 205 204 205 205 165 70
216 214 226 229 217 214 209 209 218 220 223 230 239 249 242 239 241 218 214 225 237 242 136 117 112 119 128 140 149 144 144 148 150 151 152 156 157 156 158 161 162 162 165 167 169 171 172 173 174 175 175 175 174 174 175 171 176 180 180 183 181 177 175 171 171 170 170 168 159 141 131 126 121 120 120 122 134 156 160 160 159 161 166 164 167 171 176 183 188 196 201 205 203 193 160 105 113
232 218 234 232 208 217 215 209 219 223 226 232 238 249 251 245 235 233 222 204 226 242 206 148 148 150 150 156 160 154 152 153 156 156 156 158 159 160 162 163 163 164 165 165 169 173 175 176 175 176 178 178 178 177 176 175 180 182 183 186 183 179 176 173 176 174 171 172 165 149 140 138 133 133 137 131 126 145 155 162 168 172 180 179 176 168 162 162 162 166 166 170 167 149 125 117 157
271 248 248 244 223 226 216 212 218 219 225 235 238 243 250 250 232 230 224 215 212 222 220 175 156 159 160 164 167 164 161 159 161 161 160 161 161 162 162 162 163 163 163 166 171 175 178 181 179 178 180 182 182 179 176 179 183 184 186 186 183 180 176 177 179 172 169 167 163 154 151 155 155 153 154 156 154 147 144 150 158 168 178 178 176 167 160 157 151 149 137 133 145 160 163 146 172
263 260 256 249 242 241 231 223 219 215 222 230 235 241 251 253 243 230 220 221 205 192 212 204 171 163 164 165 167 166 170 170 168 168 165 164 163 163 163 163 163 163 165 168 173 176 180 183 182 180 182 184 185 182 179 182 185 187 188 187 183 180 176 179 176 168 166 164 163 162 163 167 170 168 170 180 184 170 158 157 157 163 168 166 167 161 159 155 143 149 140 128 167 177 162 138 128
261 261 259 255 250 249 249 246 235 221 223 229 235 243 251 249 243 237 230 224 209 187 199 212 194 168 163 164 171 172 173 175 173 171 167 165 166 165 165 165 164 164 166 170 174 176 180 183 183 182 182 184 186 185 184 186 187 188 190 189 184 180 178 177 171 165 164 165 169 174 174 175 176 178 187 196 194 187 187 183 179 177 174 174 173 168 173 163 146 164 155 127 157 158 143 130 125
259 261 267 268 260 253 252 255 256 246 233 233 236 240 245 247 242 238 244 235 214 198 194 207 186 163 164 165 174 175 171 172 168 169 167 164 163 163 164 165 164 164 168 172 174 177 181 183 183 183 183 183 185 187 189 190 188 189 192 191 185 181 179 175 173 171 169 169 179 186 182 183 189 197 203 206 202 198 199 195 192 189 187 189 185 180 187 179 170 181 174 168 164 148 135 136 137
262 270 278 275 271 266 257 247 249 251 248 235 233 237 240 246 246 240 245 243 228 216 199 185 156 157 172 169 172 173 168 168 167 170 168 164 161 161 165 166 166 168 170 173 174 177 181 182 183 184 183 183 184 187 191 191 189 190 194 192 186 184 180 177 178 179 177 179 185 188 191 197 206 210 208 209 205 201 202 198 195 195 191 193 194 191 192 188 192 192 180 179 173 152 140 146 145
282 286 284 276 279 277 266 253 242 242 246 241 234 238 239 245 247 241 241 237 238 233 183 160 151 160 174 169 172 172 171 172 169 168 163 165 167 165 167 168 169 170 170 172 174 177 180 183 184 184 184 183 184 188 191 190 189 191 192 190 186 184 182 182 185 182 181 187 190 193 199 209 212 211 212 211 207 204 202 197 194 193 185 183 186 184 184 182 182 181 169 167 170 155 143 149 151
292 294 291 282 281 277 267 262 251 237 237 239 237 243 246 247 250 246 239 230 225 189 150 160 160 164 170 170 174 173 175 174 169 166 165 172 176 171 171 172 170 170 171 172 175 176 179 182 184 184 185 185 186 189 190 190 190 190 191 190 186 184 183 187 190 186 187 193 200 205 207 212 211 212 215 212 209 207 201 194 191 186 177 173 171 169 170 169 165 158 153 155 160 159 146 143 151
300 296 292 286 284 273 261 258 255 243 231 230 235 246 247 241 243 246 241 232 200 153 157 167 167 168 170 170 173 175 176 174 172 174 175 177 178 174 174 176 172 171 173 173 174 177 179 181 183 184 185 187 189 190 191 191 191 191 192 191 187 185 187 191 192 191 195 200 206 209 208 210 212 215 216 210 208 207 199 191 186 182 178 172 164 161 161 160 159 152 152 152 156 162 148 139 142
300 296 287 286 281 264 253 249 251 249 239 221 222 239 242 236 236 241 242 229 151 147 166 168 170 171 171 172 172 177 176 177 181 181 179 178 178 176 174 176 175 172 172 172 175 177 179 180 181 184 186 188 190 192 192 192 192 192 194 194 190 190 193 196 195 194 198 202 204 207 208 210 214 215 214 207 202 202 197 188 184 181 177 171 165 164 164 164 164 161 161 153 152 158 146 140 140
300 303 288 264 257 257 248 243 244 246 244 222 215 234 238 236 235 236 239 223 153 159 175 165 167 166 170 178 172 175 181 188 189 182 181 181 179 177 174 174 174 173 172 172 176 178 179 179 180 182 186 189 191 192 191 191 192 193 197 198 194 196 196 195 196 195 197 200 201 207 210 211 211 211 209 203 200 198 194 189 184 176 170 168 169 170 171 171 170 169 168 155 148 150 145 142 141
281 285 277 251 240 258 252 243 238 238 245 226 215 234 239 235 237 236 235 224 174 159 175 167 168 169 171 179 175 179 183 186 187 182 184 185 181 177 173 172 173 174 173 173 175 177 179 180 180 180 184 188 189 190 190 191 193 194 198 198 197 196 190 192 198 198 200 203 203 208 210 208 207 209 206 201 199 195 190 189 182 172 168 169 169 169 170 170 168 163 162 161 152 147 145 141 141
259 235 258 261 250 257 252 245 239 236 245 235 221 230 241 234 235 237 234 226 197 165 175 175 175 173 172 178 180 183 180 175 181 184 182 181 182 179 175 173 174 175 175 175 175 176 179 180 181 181 183 187 187 188 190 191 193 196 196 196 195 190 186 192 199 199 204 206 206 209 209 206 206 207 204 202 199 190 185 185 180 173 171 172 170 169 172 173 172 159 147 161 162 151 148 142 138
257 237 246 261 257 259 254 248 245 238 240 243 233 233 240 237 234 236 235 231 205 172 178 181 183 182 176 179 183 182 179 176 182 186 180 177 180 180 179 176 175 176 176 177 177 178 180 180 182 183 183 186 186 187 190 190 191 192 193 195 195 189 190 198 199 200 204 205 206 209 208 206 208 206 202 201 194 183 181 180 177 175 174 176 177 176 177 177 178 168 149 156 167 159 153 147 140
245 247 253 263 260 259 257 257 254 244 239 241 240 240 241 237 235 237 234 233 221 190 180 180 183 185 181 182 185 182 179 184 189 186 179 176 177 177 178 176 175 175 176 178 179 179 180 180 182 183 184 186 185 186 187 186 186 187 191 195 194 191 195 199 199 200 201 200 204 208 207 204 207 207 202 199 185 172 173 172 171 173 177 182 183 179 179 178 176 172 161 158 163 162 158 153 147
250 261 264 264 264 261 260 265 259 245 243 240 236 244 244 234 229 235 237 233 227 207 172 178 184 182 183 184 186 184 184 191 194 187 178 173 174 176 176 175 175 176 176 177 178 178 179 180 182 183 185 187 186 185 183 182 182 184 189 190 188 189 193 195 195 197 195 197 202 204 204 202 204 205 204 201 184 170 168 165 165 173 186 190 184 178 178 180 180 175 169 165 161 156 155 155 154
255 266 269 268 267 267 266 269 263 242 239 240 231 240 247 239 229 229 231 230 227 213 170 173 185 180 182 186 187 186 188 196 193 186 180 173 171 172 174 174 173 174 175 176 176 178 179 180 181 183 186 187 187 186 183 181 179 181 184 183 183 185 189 189 189 191 192 194 200 202 203 202 201 199 201 199 187 179 174 167 169 179 193 197 189 184 179 180 185 182 173 170 167 157 151 154 159
250 254 262 268 264 268 271 273 279 267 249 247 232 236 245 242 232 226 223 219 227 220 184 172 184 184 184 184 185 188 189 192 183 177 180 174 168 168 171 172 172 173 175 176 176 177 180 181 182 183 186 188 188 186 183 181 181 183 182 181 182 184 186 187 187 188 191 193 198 202 202 200 199 196 194 190 185 185 182 179 185 189 195 199 193 187 183 180 183 185 176 168 167 163 159 160 163
250 249 252 260 263 274 275 271 277 278 269 261 248 242 246 244 234 224 222 217 222 227 194 174 184 187 188 186 183 185 185 183 177 173 176 176 171 167 169 173 176 176 175 175 175 176 179 181 182 184 188 189 189 187 183 182 184 186 185 183 184 184 186 190 190 190 191 194 196 199 200 197 195 192 188 185 181 183 186 189 194 195 196 200 197 189 184 182 179 184 180 169 162 161 161 166 171
248 249 247 253 255 260 271 271 272 272 269 270 269 262 252 247 240 224 220 220 222 226 196 176 187 190 189 189 184 182 181 179 177 176 177 177 173 169 170 176 178 175 173 174 175 175 178 179 181 185 188 190 189 187 185 185 184 186 189 189 188 187 187 189 189 190 192 193 192 193 195 193 191 188 187 186 183 185 192 195 196 195 196 201 205 199 190 186 181 180 180 173 166 160 160 169 176
244 243 243 252 252 245 254 270 276 281 278 272 281 279 258 221 231 228 215 217 224 227 206 176 187 196 194 189 187 184 179 177 177 178 180 178 174 173 174 177 176 176 176 176 175 176 177 179 182 185 188 190 190 188 187 186 184 183 185 185 184 183 182 182 182 184 187 188 188 188 190 189 186 185 185 185 185 190 195 197 197 195 195 200 208 209 201 193 186 182 181 179 177 172 167 171 175
247 241 238 245 252 249 249 260 269 279 281 268 250 267 270 219 215 225 214 212 220 228 220 191 183 195 199 194 190 189 183 179 177 176 179 178 176 175 176 176 178 180 180 176 175 177 178 179 182 185 187 189 190 189 188 187 186 185 182 179 177 174 173 178 180 180 181 184 186 186 185 184 183 183 184 184 186 190 194 196 198 196 197 200 205 207 202 195 188 184 185 187 189 186 177 173 175
250 240 235 238 243 247 245 250 258 254 266 270 238 221 276 259 224 221 213 213 217 225 227 208 186 186 194 196 193 192 187 182 178 176 177 177 175 174 174 180 183 182 178 174 174 177 179 180 182 184 186 187 189 190 189 189 188 188 186 184 181 177 174 179 183 184 183 184 185 183 180 179 180 182 184 186 188 190 192 195 198 199 200 201 201 201 197 193 189 186 187 190 192 194 188 179 177
251 244 239 239 238 239 240 242 250 250 258 272 261 238 271 277 253 229 210 210 215 220 224 216 197 184 187 193 194 192 187 181 178 178 178 177 175 174 177 184 186 180 173 172 175 178 179 181 182 184 185 186 188 189 190 191 191 190 188 187 185 183 182 181 182 185 185 184 182 179 178 178 180 183 185 188 190 191 194 198 200 200 200 198 199 199 196 192 191 187 185 189 192 196 199 192 184
242 242 240 243 243 239 239 238 245 246 242 264 263 241 258 265 269 257 216 205 211 215 219 217 207 193 187 191 193 192 187 180 176 177 179 180 177 179 182 184 183 176 172 173 176 178 180 181 182 183 184 186 187 188 190 192 194 191 189 187 186 186 186 182 180 182 183 182 179 177 178 180 181 185 187 189 191 192 197 199 201 202 199 197 197 197 195 192 193 191 188 190 191 193 201 205 197
253 252 245 246 249 246 246 241 247 249 228 249 255 227 228 264 264 275 241 209 207 208 215 218 212 202 188 188 191 188 185 182 179 178 178 180 180 183 185 182 177 174 174 175 175 177 179 180 182 183 185 186 186 188 189 191 192 191 190 188 186 185 183 177 176 178 179 179 177 175 177 178 179 182 185 189 191 192 195 198 201 201 198 197 198 194 191 190 192 194 193 193 192 190 195 202 201
275 273 253 247 249 246 254 243 236 256 229 237 250 231 207 262 261 251 250 228 215 207 212 218 217 207 184 184 191 183 180 183 182 181 180 181 182 184 182 177 174 174 174 173 174 177 179 180 182 183 184 185 186 188 190 190 191 191 191 189 187 186 181 175 173 174 176 177 176 175 177 178 178 180 182 185 189 190 193 197 198 195 194 196 197 196 193 192 191 192 193 194 195 193 190 191 192
283 285 262 252 254 239 246 239 218 249 235 226 245 236 208 235 263 255 254 246 230 218 213 216 219 211 189 185 192 181 178 180 179 181 182 181 181 180 177 173 173 172 171 173 175 177 179 181 182 181 183 185 186 188 190 191 191 192 192 190 189 187 183 179 176 176 177 178 177 177 178 179 179 182 184 186 190 193 196 196 193 193 194 193 195 202 201 198 194 190 189 189 190 190 186 183 180
271 279 277 243 256 244 235 232 215 235 246 234 240 237 218 224 244 253 259 258 243 228 218 211 211 210 195 188 192 182 176 177 176 179 180 179 177 174 174 175 175 173 173 175 176 177 179 182 182 180 182 184 186 188 190 191 192 193 192 191 190 188 185 183 181 180 180 181 181 181 180 181 183 185 188 190 193 196 198 194 189 193 196 191 194 205 207 203 198 192 187 183 183 183 182 180 174
252 253 249 205 207 229 237 247 239 230 253 253 241 234 230 226 229 238 246 249 242 232 223 209 202 203 197 191 191 181 176 177 176 177 178 178 177 175 176 177 177 178 177 176 177 178 180 181 181 181 182 184 185 186 189 190 193 194 193 191 189 187 186 185 184 183 183 184 185 185 186 188 190 191 192 193 193 193 194 191 188 192 196 192 194 200 203 202 198 193 188 183 180 179 179 178 174
257 220 196 252 253 238 234 230 227 244 277 271 246 222 203 213 235 236 237 242 240 233 229 216 205 200 196 193 192 182 179 179 176 178 179 178 177 177 178 179 179 179 177 177 178 179 179 180 181 181 182 184 185 185 187 190 192 194 193 191 190 187 186 186 186 186 186 187 188 189 191 194 197 197 194 193 191 190 191 190 192 197 196 193 193 194 196 197 194 190 187 184 181 179 180 178 175
265 221 191 239 249 239 246 224 182 206 296 293 259 226 200 204 241 246 247 262 264 244 232 222 211 200 191 194 195 185 180 179 177 179 180 178 178 177 178 180 180 178 177 178 179 179 180 181 182 183 183 183 184 184 186 190 192 192 192 192 190 188 186 186 187 187 188 190 190 192 195 198 199 197 194 192 191 191 190 186 189 194 194 194 192 191 193 192 189 186 183 182 180 180 181 178 175
285 251 201 255 257 219 220 277 249 106 291 282 258 244 241 238 249 246 250 265 271 254 233 218 208 194 187 194 195 183 177 179 180 181 178 177 178 180 181 181 179 177 178 180 181 182 182 181 182 183 183 182 183 184 186 189 190 191 191 192 191 189 188 188 188 188 190 190 192 195 198 197 197 196 194 193 191 190 190 188 187 187 190 192 190 189 191 189 186 183 182 181 178 177 178 175 173
237 251 240 313 305 233 179 254 348 45 274 273 261 231 200 206 247 258 248 245 253 251 231 218 206 190 189 195 190 181 179 180 181 179 175 175 178 182 183 182 180 179 180 181 182 182 183 183 183 182 181 181 182 184 186 188 189 189 190 191 191 190 191 191 190 190 191 191 192 196 198 196 196 196 194 193 191 189 190 191 190 187 187 189 189 189 190 188 185 181 181 180 176 175 173 169 170
185 229 265 19 335 279 284 256 163 171 257 280 279 247 201 205 239 273 261 239 243 243 229 219 203 188 192 194 184 180 181 180 178 176 174 177 181 182 182 182 182 181 181 181 181 181 182 184 184 182 182 182 182 183 185 186 187 187 189 192 192 191 192 192 192 192 191 192 193 196 198 197 195 194 193 192 191 191 190 190 191 189 188 188 190 190 189 188 185 181 179 177 174 174 171 165 166
209 259 320 93 154 185 238 244 146 158 237 279 293 287 249 219 228 249 260 259 250 242 232 219 200 192 196 190 178 180 183 179 175 175 177 181 182 183 182 180 179 178 179 180 179 181 183 184 182 181 180 179 179 182 184 186 187 187 188 191 191 191 193 193 193 193 192 193 195 198 200 197 193 192 193 193 192 193 192 191 192 192 189 189 190 190 189 188 185 181 179 175 173 173 170 163 162
213 186 191 180 175 180 243 252 211 182 204 248 284 291 266 246 236 248 268 287 290 268 250 228 203 196 199 191 179 180 182 177 175 176 181 184 182 182 181 178 175 174 175 178 180 182 183 182 180 179 178 177 179 182 184 185 187 187 187 189 189 190 192 194 194 194 194 195 197 200 199 196 193 192 194 194 194 195 194 194 194 193 191 190 190 189 188 188 184 181 179 176 173 172 169 163 160
195 178 195 194 176 120 49 275 272 236 209 249 274 273 264 255 236 19 305 317 327 312 286 256 222 199 197 196 186 181 178 173 176 181 183 182 179 176 174 171 170 170 173 177 181 183 182 180 179 177 177 178 180 182 183 185 186 188 189 188 188 189 191 193 193 193 194 195 196 196 195 194 193 193 195 196 197 197 196 195 194 193 193 192 192 190 188 188 185 181 178 175 173 173 170 165 161